Total_Precipitation_Accumulation
1.94 2.13 2.33 2.42 2.42 2.26 2.28 2.38 2.30 1.98 1.72 1.52 1.41 1.32 1.31 1.36 1.67 1.57 1.42 1.37 1.26 1.24 1.23 1.20 1.23 1.31 1.53 1.82 2.09 2.27 2.46 2.54 2.60 2.68 2.73 2.73 2.70 2.72
1.96 2.08 2.14 2.19 2.26 2.18 2.18 2.29 2.29 2.12 1.85 1.59 1.41 1.33 1.37 1.30 1.51 1.43 1.52 1.59 1.30 1.17 1.13 1.14 1.12 1.09 1.09 1.19 1.35 1.52 1.62 1.71 1.86 2.01 2.06 2.11 2.15 2.17
1.47 1.62 1.86 2.06 2.15 2.16 2.22 2.29 2.31 2.17 1.90 1.72 1.45 1.40 1.50 1.42 1.44 1.43 1.54 1.57 1.33 1.20 1.06 1.02 1.03 1.00 1.03 1.00 1.03 1.12 1.21 1.31 1.43 1.54 1.65 1.70 1.70 1.73
1.33 1.36 1.47 1.75 1.92 2.05 2.16 2.20 2.25 2.20 2.01 1.96 1.84 1.58 1.49 1.45 1.54 1.65 1.61 1.60 1.52 1.49 1.33 1.11 1.04 1.02 1.00 0.99 0.96 0.93 0.94 1.01 1.10 1.17 1.26 1.42 1.54 1.54
1.22 1.22 1.33 1.45 1.62 1.74 1.88 2.01 2.07 2.18 2.16 1.96 1.99 1.89 1.64 1.58 1.58 1.67 1.74 1.86 1.73 1.66 1.68 1.49 1.28 1.19 1.12 1.04 0.97 0.94 0.91 0.92 0.96 1.03 1.08 1.14 1.22 1.31
1.16 1.22 1.26 1.29 1.49 1.72 1.83 1.95 2.01 2.13 2.26 2.16 2.06 1.98 1.81 1.73 1.69 1.71 1.88 1.98 1.97 1.72 1.60 1.53 1.47 1.36 1.26 1.17 1.06 1.03 1.02 0.96 0.97 1.01 1.03 1.10 1.12 1.15
1.08 1.06 1.13 1.26 1.40 1.61 1.71 1.95 1.99 2.15 2.25 2.27 2.13 1.93 1.78 1.73 1.69 1.67 1.84 2.04 2.09 1.97 1.80 1.58 1.48 1.33 1.24 1.22 1.19 1.17 1.14 1.10 1.07 1.12 1.19 1.21 1.20 1.23
1.12 1.08 1.06 1.14 1.23 1.33 1.38 1.63 1.83 1.99 2.12 2.11 2.09 1.93 1.77 1.68 1.78 1.82 1.84 1.91 2.03 1.96 1.77 1.80 1.71 1.53 1.38 1.25 1.33 1.38 1.38 1.34 1.23 1.19 1.23 1.30 1.31 1.32
1.04 1.10 1.14 1.10 1.19 1.27 1.30 1.42 1.53 1.60 1.75 1.87 1.88 1.79 1.77 1.70 1.78 1.83 1.84 1.79 1.69 1.75 1.71 1.79 1.80 1.63 1.44 1.36 1.41 1.35 1.34 1.35 1.32 1.25 1.21 1.21 1.27 1.33
1.03 1.02 1.16 1.20 1.23 1.40 1.38 1.47 1.42 1.38 1.42 1.49 1.64 1.68 1.65 1.75 1.83 1.99 2.07 1.94 1.79 1.79 1.76 1.71 1.63 1.54 1.38 1.37 1.42 1.28 1.23 1.25 1.27 1.25 1.20 1.16 1.16 1.22
0.99 1.02 1.14 1.21 1.41 1.53 1.53 1.52 1.42 1.36 1.45 1.56 1.68 1.77 1.78 1.85 1.93 2.00 2.04 2.03 1.95 1.88 1.74 1.62 1.50 1.50 1.44 1.35 1.33 1.36 1.29 1.26 1.24 1.25 1.24 1.25 1.28 1.36
1.06 1.05 1.27 1.24 1.36 1.43 1.47 1.58 1.56 1.44 1.42 1.44 1.48 1.55 1.54 1.63 1.89 1.91 2.03 2.13 1.97 1.89 1.73 1.63 1.58 1.70 1.78 1.52 1.30 1.27 1.26 1.35 1.38 1.35 1.36 1.37 1.45 1.42
1.03 1.00 0.96 1.13 1.17 1.28 1.39 1.46 1.72 1.64 1.55 1.54 1.49 1.40 1.41 1.45 1.56 1.76 1.91 1.98 1.96 1.74 1.59 1.61 1.63 1.67 1.65 1.50 1.38 1.31 1.28 1.27 1.35 1.37 1.39 1.48 1.55 1.48
0.90 0.93 0.92 1.08 1.10 1.15 1.17 1.37 1.63 1.65 1.53 1.60 1.56 1.47 1.40 1.44 1.45 1.52 1.68 1.71 1.69 1.67 1.60 1.60 1.63 1.62 1.57 1.41 1.35 1.36 1.37 1.33 1.35 1.36 1.37 1.59 1.67 1.73
0.78 0.94 1.03 1.11 1.07 1.00 1.14 1.38 1.44 1.46 1.61 1.58 1.55 1.47 1.39 1.44 1.44 1.50 1.58 1.57 1.51 1.48 1.50 1.52 1.63 1.69 1.67 1.54 1.35 1.26 1.36 1.43 1.41 1.43 1.47 1.51 1.48 1.54
0.83 1.02 1.17 1.22 1.17 1.09 1.16 1.27 1.28 1.40 1.58 1.47 1.42 1.39 1.37 1.46 1.52 1.57 1.52 1.53 1.55 1.47 1.45 1.44 1.60 1.85 1.91 1.76 1.70 1.58 1.49 1.52 1.49 1.55 1.62 1.67 1.68 1.64
0.95 1.12 1.28 1.32 1.37 1.31 1.28 1.31 1.26 1.24 1.33 1.26 1.29 1.36 1.40 1.43 1.43 1.48 1.48 1.42 1.46 1.39 1.39 1.40 1.41 1.53 1.69 1.76 1.80 1.77 1.79 1.79 1.76 1.80 1.82 1.73 1.62 1.60
1.17 1.28 1.40 1.48 1.51 1.50 1.49 1.43 1.31 1.24 1.20 1.23 1.34 1.37 1.35 1.38 1.41 1.42 1.49 1.48 1.45 1.37 1.35 1.34 1.39 1.52 1.62 1.62 1.55 1.50 1.54 1.60 1.62 1.73 1.83 1.76 1.58 1.44
1.40 1.41 1.43 1.47 1.50 1.45 1.40 1.33 1.22 1.13 1.14 1.21 1.25 1.26 1.29 1.32 1.38 1.38 1.40 1.42 1.36 1.27 1.23 1.25 1.34 1.47 1.60 1.52 1.33 1.24 1.33 1.44 1.54 1.63 1.68 1.58 1.40 1.32
1.50 1.50 1.56 1.54 1.49 1.38 1.27 1.20 1.09 1.08 1.12 1.14 1.13 1.10 1.17 1.26 1.31 1.33 1.35 1.38 1.36 1.31 1.27 1.25 1.33 1.43 1.52 1.49 1.34 1.22 1.26 1.34 1.41 1.50 1.50 1.50 1.42 1.44
1.24 1.24 1.27 1.29 1.25 1.18 1.13 1.12 1.08 1.07 1.07 1.09 1.09 1.09 1.16 1.21 1.20 1.22 1.29 1.42 1.45 1.40 1.39 1.30 1.31 1.45 1.44 1.45 1.38 1.17 1.12 1.28 1.37 1.37 1.41 1.53 1.53 1.47
1.04 1.05 1.03 1.00 0.99 1.00 1.02 1.07 1.10 1.11 1.12 1.13 1.15 1.15 1.20 1.26 1.22 1.21 1.25 1.33 1.38 1.37 1.34 1.31 1.34 1.46 1.49 1.51 1.40 1.23 1.15 1.16 1.33 1.51 1.52 1.52 1.47 1.40
1.09 1.10 1.06 1.02 0.97 0.97 1.03 1.08 1.12 1.13 1.12 1.14 1.17 1.19 1.20 1.23 1.23 1.25 1.27 1.32 1.37 1.39 1.41 1.42 1.45 1.51 1.51 1.46 1.39 1.28 1.20 1.16 1.20 1.31 1.43 1.58 1.48 1.28